Lanai City, HI

10:14 PM HST on July 24, 2017 (GMT -1000)
Lanai City

Weather History for PHNY - April, 2014

Change the Weather History Date:

Tuesday, April 29, 2014

  Actual Average Record
Temperature  
Mean Temperature 70 °F -  
Max Temperature 77 °F 79 °F 83 °F (1981)
Min Temperature 64 °F 62 °F 56 °F (1952)
Cooling Degree Days 6    
Growing Degree Days 20 (Base 50)    
Moisture  
Dew Point 63 °F    
Average Humidity 81    
Maximum Humidity 100    
Minimum Humidity 56    
Precipitation  
Precipitation 0.05 in - - ()
Sea Level Pressure  
Sea Level Pressure 30.00 in    
Wind  
Wind Speed 17 mph (NE)    
Max Wind Speed 25 mph    
Max Gust Speed 31 mph    
Visibility 10 miles    
Events Rain    
Averages and records for this station are not official NWS values.
T = Trace of Precipitation, MM = Missing Value Source: NWS Daily Summary

Daily Weather History Graph

Daily Weather History Graph

Search for Another Location

Airport or City:

Trip Planner

Search our weather history database for the weather conditions in past years. The results will help you decide how hot, cold, wet, or windy it might be!

Date:

Astronomy

Apr. 29, 2014 Rise Set
Actual Time 5:58 AM HST 6:51 PM HST
Civil Twilight 5:35 AM HST 7:14 PM HST
Nautical Twilight 5:08 AM HST 7:42 PM HST
Astronomical Twilight 4:40 AM HST 8:09 PM HST
Moon 6:24 AM HST (4/29) 7:39 PM HST (4/29)
Length of Visible Light 13h 39m
Length of Day
12h 52m
New Moon, 1% of the Moon is Illuminated
Apr 29
New Moon
May 6
First Quarter
May 14
Full
May 21
Last Quarter
May 28
New

Hourly Weather History & Observations

Time (HST) Temp. Dew Point Humidity Pressure Visibility Wind Dir Wind Speed Gust Speed Precip Events Conditions
12:56 AM 66.9 °F 64.9 °F 93% 30.00 in 10.0 mi NE 11.5 mph - N/A   Overcast
1:56 AM 66.2 °F 66.2 °F 100% 30.04 in 10.0 mi NE 16.1 mph - N/A   Overcast
2:56 AM 66.9 °F 64.9 °F 93% 29.98 in 10.0 mi NE 16.1 mph 21.9 mph N/A   Overcast
3:56 AM 64.9 °F 63.9 °F 96% 29.98 in 10.0 mi NNE 17.3 mph 23.0 mph N/A   Overcast
4:56 AM 64.9 °F 64.9 °F 100% 29.99 in 10.0 mi NE 10.4 mph - N/A   Overcast
5:56 AM 64.9 °F 64.9 °F 100% 30.00 in 10.0 mi NE 8.1 mph - 0.03 in Rain Light Rain
6:36 AM 66.2 °F 64.4 °F 94% 30.05 in 10.0 mi East 12.7 mph 18.4 mph 0.02 in Rain Light Rain
6:56 AM 65.8 °F 65.8 °F 100% 30.01 in 10.0 mi NE 17.3 mph - 0.02 in   Overcast
7:56 AM 68.9 °F 66.9 °F 93% 30.02 in 10.0 mi NE 15.0 mph - N/A   Overcast
8:56 AM 72.0 °F 65.8 °F 81% 30.03 in 10.0 mi NE 18.4 mph 28.8 mph N/A   Scattered Clouds
9:56 AM 72.9 °F 64.9 °F 76% 30.03 in 10.0 mi NE 23.0 mph 27.6 mph N/A   Partly Cloudy
10:56 AM 74.8 °F 63.9 °F 69% 30.02 in 10.0 mi NNE 20.7 mph 28.8 mph N/A   Clear
11:56 AM 75.9 °F 63.0 °F 64% 30.01 in 10.0 mi NE 19.6 mph 31.1 mph N/A   Clear
12:56 PM 77.9 °F 61.0 °F 56% 29.99 in 10.0 mi NE 25.3 mph - N/A   Partly Cloudy
1:56 PM 77.9 °F 61.0 °F 56% 29.97 in 10.0 mi NE 21.9 mph - N/A   Mostly Cloudy
2:56 PM 77.0 °F 61.9 °F 59% 29.96 in 10.0 mi NE 25.3 mph 31.1 mph N/A   Overcast
3:56 PM 73.9 °F 61.9 °F 66% 29.95 in 10.0 mi NE 24.2 mph - N/A   Clear
4:56 PM 72.9 °F 59.9 °F 64% 29.95 in 10.0 mi NE 23.0 mph 31.1 mph N/A   Overcast
5:56 PM 68.9 °F 59.9 °F 73% 29.97 in 10.0 mi NE 21.9 mph 27.6 mph N/A   Clear
6:56 PM 68.0 °F 63.0 °F 84% 29.98 in 10.0 mi NE 21.9 mph - N/A   Clear
7:56 PM 66.9 °F 61.9 °F 84% 30.00 in 10.0 mi NE 20.7 mph 29.9 mph N/A   Clear
8:56 PM 66.9 °F 61.0 °F 81% 30.01 in 10.0 mi NE 21.9 mph - N/A   Mostly Cloudy
9:56 PM 66.9 °F 61.9 °F 84% 30.02 in 10.0 mi NE 20.7 mph 26.5 mph N/A   Mostly Cloudy
10:56 PM 66.9 °F 61.0 °F 81% 30.02 in 10.0 mi NE 20.7 mph - N/A   Mostly Cloudy
11:56 PM 66.9 °F 61.9 °F 84% 30.01 in 10.0 mi NE 19.6 mph - N/A   Clear